Temp
-19 -18 -18 -18 -18 -18 -18 -17 -17 -17 -17 -17 -17 -17 -16 -16 -16 -17 -18 -17 -17 -17 -17 -17 -17 -17 -18
-19 -19 -19 -19 -19 -18 -18 -18 -18 -18 -17 -17 -17 -17 -17 -17 -17 -17 -17 -17 -17 -17 -17 -17 -17 -18 -17
-21 -20 -20 -20 -20 -19 -19 -19 -19 -18 -18 -17 -17 -17 -16 -17 -16 -17 -17 -17 -17 -17 -17 -17 -17 -17 -18
-21 -21 -21 -21 -21 -21 -20 -20 -19 -19 -18 -18 -18 -18 -17 -17 -17 -17 -17 -17 -17 -17 -17 -17 -17 -17 -18
-22 -22 -21 -22 -22 -22 -22 -21 -20 -19 -19 -18 -18 -18 -18 -18 -17 -18 -17 -17 -18 -17 -17 -17 -17 -18 -18
-22 -22 -22 -22 -22 -22 -21 -21 -20 -20 -19 -19 -19 -18 -19 -19 -18 -18 -17 -17 -17 -17 -17 -17 -17 -18 -18
-22 -21 -21 -21 -22 -21 -21 -21 -20 -20 -20 -19 -19 -19 -19 -19 -18 -18 -18 -17 -17 -17 -17 -17 -17 -18 -18
-23 -22 -22 -22 -22 -21 -21 -21 -20 -20 -20 -19 -19 -19 -19 -19 -18 -19 -18 -18 -17 -17 -17 -18 -18 -18 -18
-23 -23 -23 -23 -23 -22 -21 -21 -20 -20 -19 -19 -19 -19 -20 -20 -20 -19 -19 -18 -18 -17 -17 -18 -18 -18 -18
-24 -24 -24 -24 -24 -24 -23 -22 -21 -20 -21 -21 -20 -20 -20 -20 -19 -19 -18 -18 -18 -17 -18 -18 -18 -18 -19
-24 -24 -25 -25 -25 -24 -24 -23 -22 -21 -21 -21 -21 -21 -20 -19 -19 -18 -18 -18 -18 -18 -18 -18 -19 -19 -19
-25 -25 -25 -25 -25 -24 -24 -23 -22 -21 -21 -20 -20 -20 -19 -19 -19 -18 -18 -18 -18 -18 -18 -19 -19 -19 -19
-25 -26 -25 -25 -25 -24 -23 -22 -22 -21 -21 -20 -19 -19 -19 -19 -19 -18 -18 -18 -18 -19 -19 -19 -19 -19 -19
-26 -25 -25 -24 -24 -23 -22 -21 -20 -20 -20 -19 -19 -19 -19 -18 -18 -18 -18 -18 -19 -19 -19 -19 -19 -19 -20
-25 -24 -24 -23 -22 -22 -21 -20 -20 -19 -19 -19 -19 -18 -19 -18 -18 -19 -19 -19 -19 -19 -19 -19 -20 -20 -21
-24 -23 -22 -21 -21 -20 -20 -20 -20 -19 -19 -19 -19 -19 -19 -19 -19 -19 -19 -19 -19 -19 -20 -20 -21 -22 -23
-23 -23 -21 -21 -20 -20 -20 -20 -19 -19 -19 -20 -19 -19 -19 -20 -19 -19 -19 -20 -20 -21 -21 -22 -23 -23 -23
Height
5477 5480 5480 5479 5480 5478 5479 5478 5478 5479 5479 5479 5481 5482 5483 5484 5484 5485 5487 5489 5491 5491 5492 5495 5496 5496 5496
5459 5456 5456 5457 5458 5456 5456 5457 5457 5460 5459 5459 5460 5462 5464 5466 5465 5467 5469 5472 5475 5476 5477 5481 5480 5481 5482
5425 5433 5433 5434 5430 5432 5434 5434 5436 5438 5438 5440 5441 5442 5444 5445 5443 5449 5452 5455 5459 5460 5461 5464 5464 5465 5468
5403 5408 5410 5415 5408 5407 5409 5412 5416 5416 5419 5419 5420 5422 5424 5425 5426 5430 5434 5437 5441 5443 5445 5448 5450 5452 5453
5384 5384 5390 5389 5386 5387 5387 5392 5397 5398 5398 5401 5400 5403 5405 5406 5407 5412 5416 5421 5422 5426 5431 5432 5433 5436 5438
5359 5360 5366 5364 5366 5366 5367 5369 5376 5378 5376 5382 5380 5384 5388 5389 5390 5394 5397 5401 5405 5410 5413 5416 5418 5420 5422
5329 5334 5338 5341 5341 5345 5345 5346 5352 5358 5355 5361 5362 5366 5367 5371 5375 5377 5381 5383 5389 5392 5397 5399 5402 5404 5408
5300 5305 5310 5315 5315 5318 5322 5324 5331 5335 5334 5338 5342 5348 5351 5353 5356 5363 5365 5369 5372 5375 5381 5384 5387 5390 5393
5282 5283 5286 5291 5294 5293 5298 5299 5308 5314 5315 5317 5324 5328 5333 5338 5343 5347 5350 5355 5358 5360 5365 5368 5371 5373 5378
5266 5266 5269 5273 5275 5275 5278 5280 5285 5290 5296 5300 5306 5311 5317 5324 5328 5333 5337 5340 5342 5346 5349 5354 5357 5361 5365
5254 5255 5256 5259 5262 5263 5264 5265 5269 5273 5282 5287 5294 5299 5305 5312 5315 5320 5323 5325 5329 5333 5337 5341 5345 5350 5352
5245 5247 5249 5251 5252 5253 5254 5256 5260 5266 5272 5278 5282 5290 5295 5299 5304 5307 5311 5313 5317 5322 5326 5330 5334 5336 5338
5238 5240 5241 5242 5244 5245 5249 5252 5257 5260 5264 5269 5274 5279 5284 5289 5292 5295 5299 5304 5307 5312 5316 5319 5321 5323 5323
5233 5234 5235 5237 5240 5243 5247 5249 5252 5255 5258 5262 5266 5270 5275 5279 5282 5286 5290 5295 5298 5302 5305 5307 5308 5308 5306
5229 5229 5231 5234 5237 5240 5243 5245 5246 5248 5252 5256 5259 5264 5269 5273 5276 5280 5283 5287 5290 5292 5293 5293 5292 5291 5291
5226 5227 5229 5232 5235 5238 5240 5242 5243 5246 5249 5253 5257 5261 5265 5269 5272 5275 5277 5278 5279 5279 5278 5278 5277 5278 5278
5224 5225 5228 5232 5234 5236 5238 5241 5244 5246 5249 5252 5256 5259 5262 5265 5266 5267 5267 5266 5266 5265 5264 5263 5264 5266 5266
Wind_Speed
74 70 69 67 64 63 62 63 63 61 62 60 57 54 54 50 55 57 56 51 50 49 51 55 53 52 52
72 69 64 62 59 59 56 57 57 57 61 59 58 57 54 50 55 55 53 49 49 48 49 52 54 53 55
69 63 64 60 58 56 54 54 52 52 56 58 59 57 53 53 55 55 54 55 50 48 51 57 55 56 64
70 64 63 59 61 58 56 56 54 56 57 60 63 60 61 62 58 48 53 50 53 57 49 52 60 67 65
71 67 62 59 59 57 57 54 53 54 56 58 61 64 63 55 55 56 59 57 57 49 49 54 54 64 63
76 72 66 63 60 59 60 58 54 55 57 54 58 57 64 62 46 47 52 52 50 54 51 51 50 59 64
80 75 71 67 65 63 63 62 58 56 57 51 51 53 56 55 48 43 48 51 54 60 50 53 53 52 61
71 70 67 64 63 63 61 60 55 53 54 51 50 47 51 53 60 39 42 48 51 53 52 49 54 55 62
56 56 55 52 51 56 58 59 55 51 52 52 48 44 46 47 43 39 42 43 41 49 54 54 52 50 56
44 45 44 42 42 47 49 51 49 46 45 42 40 40 42 42 45 47 43 40 39 44 40 41 43 44 47
30 31 34 35 36 40 43 42 33 28 25 28 29 33 37 32 33 34 39 38 38 35 36 36 41 39 44
18 20 23 27 30 31 29 25 21 21 22 24 26 27 32 31 31 34 36 33 36 34 34 37 39 41 45
12 13 19 20 23 24 18 9 17 18 23 21 23 28 29 32 33 32 34 39 38 34 37 40 43 46 48
12 15 18 19 16 12 13 14 18 22 23 20 24 26 26 26 28 32 34 27 29 32 35 40 43 45 45
13 15 16 14 12 10 12 13 18 17 22 23 25 25 25 23 21 20 22 24 29 34 38 41 43 44 41
12 11 14 9 3 9 13 8 10 14 16 20 20 20 20 19 20 23 26 30 35 39 41 43 42 37 30
12 11 8 5 9 8 8 8 11 14 17 17 17 18 18 19 22 26 30 33 37 38 37 34 32 33 34
Wind_Direction
282 280 277 274 273 271 268 266 265 262 261 260 259 261 260 264 256 256 260 257 256 258 256 254 264 269 270
279 278 277 276 277 272 270 267 265 263 262 262 258 257 259 262 259 258 253 254 256 257 255 261 263 265 262
280 280 278 275 271 268 267 264 262 258 258 257 256 254 256 252 262 254 256 256 261 262 259 260 261 261 262
278 278 277 274 271 267 263 261 259 258 255 255 256 254 252 247 253 251 260 251 247 249 267 257 257 257 256
279 278 276 272 269 269 268 264 261 260 258 255 255 255 256 258 244 246 249 253 254 253 257 256 255 255 256
277 275 274 272 269 267 266 265 262 261 259 255 258 256 254 254 256 255 250 246 243 246 256 253 254 253 253
275 272 272 270 269 266 265 266 266 261 260 257 255 256 253 254 252 250 255 234 241 249 256 255 256 254 252
275 274 270 269 267 267 266 266 265 263 261 258 256 254 254 252 245 256 253 246 250 247 246 262 259 257 252
276 273 271 269 267 266 267 268 269 265 261 258 257 251 246 248 249 249 257 246 249 243 251 257 252 252 249
274 272 270 268 263 263 267 269 269 262 257 255 249 245 239 244 243 256 254 254 255 254 249 248 248 247 248
270 265 264 264 263 265 272 275 271 256 244 242 242 238 231 246 244 254 256 248 246 241 246 245 244 253 258
266 262 261 262 265 262 261 262 267 248 235 246 238 237 241 252 251 253 250 245 235 238 244 246 249 260 265
277 260 260 248 246 246 247 261 269 260 262 260 246 240 253 259 254 245 249 247 230 239 243 248 253 260 265
267 259 256 257 241 224 238 268 253 263 255 246 252 257 251 252 243 244 231 233 235 242 249 255 259 267 272
260 256 255 229 215 259 268 277 264 243 234 245 241 234 230 229 222 221 225 238 248 255 263 268 270 272 273
285 257 198 198 192 238 265 262 221 215 218 210 201 200 206 217 225 239 251 256 262 267 270 271 271 273 272
262 210 157 163 232 247 220 237 198 185 182 190 204 218 232 245 258 265 266 267 269 270 273 276 277 278 277